CZ-2C R/B (28222 NORAD) Tracking and Keplerian Element Data

This shows tracking and keplerian element data for the satellite.

Feedback or suggestion? Click here.




ElementValue
Catalog28222
NameCZ-2C R/B
Epoch Orbit80333
Epoch Day351.49055222
Epoch Year2018
RAAN305.5405
Inclination97.6009
Eccentricity0.0049097
Argument of Perigee105.8378
Mean Anonmoly12.2805
Mean Motion15.09911455
Decay Rate2.09E-06
L11 28222U 04012C 18351.49055222 .00000209 00000-0 16610-4 0 9999
L22 28222 97.6009 305.5405 0049097 105.8378 12.2805 15.09911455803337

Live tracking and technical data element details for CZ-2C R/B (NORAD 28222). CZ-2C R/B can be tracked NOW for your location showing map with azimuth and elevation plus other details from your city location.

Track the satellite on the map from your city or location and see movement details for azimuth, elevation, latitude, longitude, range, height, and movement on the map or in text.







IsCatalogInMostPopularTable: catalog: 28222, numindb: 38
Update: records affected: 1



GetName: 28222 CZ-2C R/B

Hit Count: updated at: Tue, 18 Dec 2018 21:46:47 GMT